Tracking 34403 objects as of 12-Jun-2026
HD Live streaming from Space Station
objects crossing your sky now

BREEZE-M DEB (TANK)

Track BREEZE-M DEB (TANK) now!
10-day predictions


NORAD ID: 39524
Int'l Code: 2014-007C
Perigee: 247.7 km
Apogee: 19,484.2 km
Inclination: 49.4 °
Period: 343.2 minutes
Semi major axis: 16236 km
RCS: Unknown
Launch date: February 14, 2014
Source: Commonwealth of Independent States (former USSR) (CIS)
Launch site: TYURATAM MISSILE AND SPACE COMPLEX (TTMTR)

Note: This is SATELLITE DEBRIS
Your satellite tracking list
Your tracking list is empty




NASA's NSSDC Master Catalog

Two Line Element Set (TLE):
1 39524U 14007C   26162.98416499  .00014454  00000-0  12262-2 0  9995
2 39524  49.3889 310.1906 5923654 193.5404 138.6779  4.19610064172413
Source of the keplerian elements: AFSPC